Hermiston, OR

8:45 PM PDT on June 24, 2017 (GMT -0700)
Hermiston Municipal

Weather History for KHRI - March, 2014

Change the Weather History Date:

Sunday, March 30, 2014

  Actual Average Record
Temperature  
Mean Temperature 44 °F 49 °F  
Max Temperature 59 °F 62 °F 80 °F (1911)
Min Temperature 32 °F 36 °F 16 °F (1954)
Degree Days  
Heating Degree Days 20    
Moisture  
Dew Point 32 °F    
Average Humidity 61    
Maximum Humidity 96    
Minimum Humidity 28    
Precipitation  
Precipitation 0.00 in 0.04 in 0.38 in (1915)
Month to date precipitation 1.07  
Year to date precipitation 3.35  
Sea Level Pressure  
Sea Level Pressure 29.92 in    
Wind  
Wind Speed 10 mph (SW)    
Max Wind Speed 23 mph    
Max Gust Speed 32 mph    
Visibility 10 miles    
Events      
T = Trace of Precipitation, MM = Missing Value Source: NWS Daily Summary

Daily Weather History Graph

Daily Weather History Graph

Search for Another Location

Airport or City:

Trip Planner

Search our weather history database for the weather conditions in past years. The results will help you decide how hot, cold, wet, or windy it might be!

Date:

Astronomy

Mar. 30, 2014 Rise Set
Actual Time 6:40 AM PDT 7:22 PM PDT
Civil Twilight 6:10 AM PDT 7:53 PM PDT
Nautical Twilight 5:35 AM PDT 8:28 PM PDT
Astronomical Twilight 4:57 AM PDT 9:06 PM PDT
Moon 6:29 AM PDT (3/30) 7:43 PM PDT (3/30)
Length of Visible Light 13h 42m
Length of Day
12h 42m
New Moon, 0% of the Moon is Illuminated
Mar 30
New Moon
Apr 7
First Quarter
Apr 15
Full
Apr 22
Last Quarter
Apr 28
New

Hourly Weather History & Observations

Time (PDT) Temp. Windchill Dew Point Humidity Pressure Visibility Wind Dir Wind Speed Gust Speed Precip Events Conditions
12:53 AM 39.9 °F 35.1 °F 35.1 °F 83% 29.87 in 10.0 mi South 6.9 mph - N/A   Clear
1:53 AM 32.0 °F 28.7 °F 30.9 °F 96% 29.87 in 10.0 mi ESE 3.5 mph - N/A   Clear
2:53 AM 37.0 °F 32.4 °F 34.0 °F 89% 29.87 in 10.0 mi SW 5.8 mph - N/A   Clear
3:53 AM 36.0 °F 32.1 °F 32.0 °F 86% 29.87 in 10.0 mi West 4.6 mph - N/A   Clear
4:53 AM 35.1 °F - 30.9 °F 85% 29.88 in 10.0 mi Calm Calm - N/A   Clear
5:53 AM 36.0 °F 29.0 °F 30.9 °F 82% 29.89 in 10.0 mi SSW 9.2 mph - N/A   Clear
6:53 AM 35.1 °F 28.6 °F 30.0 °F 82% 29.91 in 10.0 mi SSW 8.1 mph - N/A   Partly Cloudy
7:53 AM 41.0 °F 37.1 °F 35.1 °F 79% 29.91 in 10.0 mi SW 5.8 mph - N/A   Partly Cloudy
8:53 AM 48.9 °F - 36.0 °F 61% 29.92 in 10.0 mi WSW 15.0 mph - N/A   Clear
9:53 AM 52.0 °F - 36.0 °F 54% 29.93 in 10.0 mi WSW 23.0 mph 27.6 mph N/A   Scattered Clouds
10:53 AM 54.0 °F - 36.0 °F 51% 29.94 in 10.0 mi West 19.6 mph 29.9 mph N/A   Partly Cloudy
11:53 AM 55.0 °F - 35.1 °F 47% 29.93 in 10.0 mi WSW 19.6 mph 28.8 mph N/A   Partly Cloudy
12:53 PM 57.9 °F - 30.0 °F 35% 29.92 in 10.0 mi West 20.7 mph 29.9 mph N/A   Clear
1:53 PM 57.9 °F - 30.9 °F 36% 29.92 in 10.0 mi West 21.9 mph 28.8 mph N/A   Clear
2:53 PM 57.9 °F - 25.0 °F 28% 29.91 in 10.0 mi West 23.0 mph 32.2 mph N/A   Clear
3:53 PM 57.9 °F - 27.0 °F 31% 29.91 in 10.0 mi WSW 19.6 mph 29.9 mph N/A   Clear
4:53 PM 57.9 °F - 28.0 °F 32% 29.91 in 10.0 mi WSW 18.4 mph 29.9 mph N/A   Clear
5:53 PM 55.9 °F - 26.1 °F 32% 29.92 in 10.0 mi WSW 16.1 mph 26.5 mph N/A   Clear
6:53 PM 53.1 °F - 30.9 °F 43% 29.93 in 10.0 mi WSW 10.4 mph 20.7 mph N/A   Clear
7:53 PM 48.0 °F - 32.0 °F 54% 29.94 in 10.0 mi SW 8.1 mph - N/A   Clear
8:53 PM 42.1 °F 38.4 °F 32.0 °F 67% 29.95 in 10.0 mi SSW 5.8 mph - N/A   Clear
9:53 PM 41.0 °F 36.4 °F 33.1 °F 73% 29.96 in 10.0 mi South 6.9 mph - N/A   Clear
10:53 PM 43.0 °F 38.2 °F 34.0 °F 71% 29.97 in 10.0 mi South 8.1 mph - N/A   Clear
11:53 PM 42.1 °F 37.7 °F 33.1 °F 70% 29.98 in 10.0 mi South 6.9 mph - N/A   Clear